Location: Newark
(48.1500°N, 2.9667°W)
Time: 15:21:05
(UTC+00:00)

Altair - Pass Details

Date: 01 February 2020
Orbit: 1502 x 1682 km, 47.2° (Epoch: 25 February)

Event Time Altitude Azimuth Distance (km) Brightness Sun altitude
Rises 04:51:27 0° 185° (S) 4,794 10.0 -28.3°
Reaches altitude 10° 04:55:36 10° 170° (S) 3,843 9.6 -27.7°
Maximum altitude 05:02:08 20° 127° (SE) 3,148 9.6 -26.6°
Drops below altitude 10° 05:08:46 10° 85° (E) 3,929 10.7 -25.5°
Sets 05:13:02 0° 71° (ENE) 4,934 11.3 -24.7°
